Location: Columbia
(38.9520°N, 92.3340°W)
Time: 11:50:00
(UTC-05:00)

SL-08 RB Rocket - Visible Passes

Search period start: 26 March 2017 00:00
Search period end: 05 April 2017 00:00
Orbit: 649 x 684 km, 98.0° (Epoch: 24 March)

Date Brightness Start Highest point End Pass type
(mag) Time Alt. Az. Time Alt. Az. Time Alt. Az.
26 Mar 5.9 21:27:03 14° NE 21:27:03 14° NE 21:28:08 10° NNE visible
26 Mar 6.4 23:05:11 16° NNW 23:05:11 16° NNW 23:06:12 10° NNW visible
27 Mar 5.7 21:58:59 20° NNE 21:58:59 20° NNE 22:00:41 10° N visible
28 Mar 5.8 22:30:54 23° N 22:30:54 23° N 22:32:39 10° N visible
29 Mar 5.8 21:24:42 14° NE 21:24:42 14° NE 21:26:01 10° NNE visible
29 Mar 6.2 23:02:49 19° NNW 23:02:49 19° NNW 23:04:11 10° NNW visible
30 Mar 5.5 21:56:37 22° NNE 21:56:37 22° NNE 21:58:38 10° N visible
30 Mar 6.8 23:34:44 12° NW 23:34:44 12° NW 23:35:08 10° NW visible
31 Mar 5.5 22:28:32 26° N 22:28:32 26° N 22:30:37 10° N visible
01 Apr 5.8 21:22:19 15° NE 21:22:19 15° NE 21:23:54 10° NNE visible
01 Apr 6.0 23:00:28 22° NNW 23:00:28 22° NNW 23:02:11 10° NNW visible
02 Apr 5.4 21:54:15 24° NNE 21:54:15 24° NNE 21:56:33 10° N visible
02 Apr 6.6 23:32:23 14° NW 23:32:23 14° NW 23:33:11 10° NW visible
03 Apr 5.3 22:26:11 30° N 22:26:11 30° N 22:28:35 10° N visible
04 Apr 5.7 21:19:58 15° NE 21:19:58 15° NE 21:21:45 10° NNE visible
04 Apr 5.8 22:58:06 25° NNW 22:58:06 25° NNW 23:00:10 10° NNW visible
